, AK

(GMT )
Valdez Airport

Weather History for PAVD - January, 2014

Change the Weather History Date:

Sunday, January 5, 2014

  Actual Average Record
Temperature  
Mean Temperature 32 °F -  
Max Temperature 33 °F 26 °F 41 °F (2017)
Min Temperature 32 °F 15 °F -12 °F (1966)
Degree Days  
Heating Degree Days 32    
Moisture  
Dew Point 31 °F    
Average Humidity 90    
Maximum Humidity 100    
Minimum Humidity 81    
Precipitation  
Precipitation 0.26 in - - ()
Sea Level Pressure  
Sea Level Pressure 29.77 in    
Wind  
Wind Speed 0 mph (North)    
Max Wind Speed 0 mph    
Max Gust Speed -    
Visibility 2 miles    
Events      
Averages and records for this station are not official NWS values.
T = Trace of Precipitation, MM = Missing Value Source: NWS Daily Summary

Daily Weather History Graph

Daily Weather History Graph

Search for Another Location

Airport or City:

Trip Planner

Search our weather history database for the weather conditions in past years. The results will help you decide how hot, cold, wet, or windy it might be!

Date:

Astronomy

Jan. 05, 2014 Rise Set
Actual Time 9:54 AM AKST 3:46 PM AKST
Civil Twilight 8:55 AM AKST 4:45 PM AKST
Nautical Twilight 7:57 AM AKST 5:44 PM AKST
Astronomical Twilight 7:04 AM AKST 6:37 PM AKST
Moon 11:02 AM AKST (1/5) 11:13 PM AKST (1/5)
Length of Visible Light 7h 50m
Length of Day
5h 51m
Waxing Crescent, 26% of the Moon is Illuminated
Jan 5
Waxing Crescent
Jan 7
First Quarter
Jan 15
Full
Jan 23
Last Quarter
Jan 30
New

Hourly Weather History & Observations

Time (AKST) Temp. Dew Point Humidity Pressure Visibility Wind Dir Wind Speed Gust Speed Precip Events Conditions
12:16 AM 32.0 °F 30.2 °F 93% 29.74 in 2.0 mi Calm Calm - 0.01 in   Unknown
12:36 AM 32.0 °F 30.2 °F 93% 29.73 in 1.8 mi Calm Calm - 0.02 in   Unknown
12:56 AM 32.0 °F 30.2 °F 93% 29.72 in 1.2 mi Calm Calm - 0.03 in   Unknown
1:16 AM 32.0 °F 28.4 °F 87% 29.71 in 1.5 mi Calm Calm - 0.01 in   Unknown
1:36 AM 33.8 °F 32.0 °F 93% 29.71 in 2.5 mi Calm Calm - 0.02 in   Unknown
1:56 AM 33.8 °F 30.2 °F 87% 29.70 in 3.0 mi Calm Calm - 0.03 in   Overcast
2:16 AM 33.8 °F 32.0 °F 93% 29.69 in 5.0 mi Calm Calm - 0.01 in   Overcast
2:36 AM 33.8 °F 30.2 °F 87% 29.69 in 3.0 mi Calm Calm - 0.02 in   Overcast
2:56 AM 33.8 °F 30.2 °F 87% 29.68 in 1.2 mi Calm Calm - 0.03 in   Overcast
3:16 AM 33.8 °F 30.2 °F 87% 29.68 in 3.0 mi Calm Calm - N/A   Overcast
3:36 AM 33.8 °F 30.2 °F 87% 29.68 in 0.8 mi Calm Calm - 0.01 in   Overcast
3:56 AM 33.8 °F 30.2 °F 87% 29.67 in 0.8 mi Calm Calm - 0.02 in   Overcast
4:16 AM 33.8 °F 28.4 °F 81% 29.66 in 0.8 mi Calm Calm - 0.01 in   Overcast
4:36 AM 33.8 °F 30.2 °F 87% 29.67 in 1.2 mi Calm Calm - 0.01 in   Overcast
4:56 AM 33.8 °F 30.2 °F 87% 29.66 in 0.8 mi Calm Calm - 0.02 in   Overcast
5:16 AM 33.8 °F 32.0 °F 93% 29.66 in 3.0 mi Calm Calm - N/A   Overcast
5:36 AM 33.8 °F 28.4 °F 81% 29.66 in 2.5 mi Calm Calm - N/A   Overcast
5:56 AM 33.8 °F 30.2 °F 87% 29.66 in 2.5 mi Calm Calm - 0.02 in   Overcast
6:16 AM 33.8 °F 30.2 °F 87% 29.67 in 3.0 mi Calm Calm - 0.01 in   Overcast
6:36 AM 33.8 °F 30.2 °F 87% 29.67 in 3.0 mi Calm Calm - 0.03 in   Overcast
6:56 AM 33.8 °F 30.2 °F 87% 29.68 in 1.5 mi Calm Calm - 0.04 in   Overcast
7:16 AM 33.8 °F 28.4 °F 81% 29.69 in 1.5 mi Calm Calm - N/A   Overcast
7:36 AM 33.8 °F 32.0 °F 93% 29.69 in 1.5 mi Calm Calm - 0.01 in   Overcast
7:56 AM 33.8 °F 32.0 °F 93% 29.69 in 3.0 mi Calm Calm - 0.01 in   Overcast
8:16 AM 33.8 °F 32.0 °F 93% 29.71 in 3.0 mi Calm Calm - 0.01 in   Overcast
8:36 AM 33.8 °F 33.8 °F 100% 29.71 in 3.0 mi Calm Calm - 0.02 in   Overcast
8:56 AM 33.8 °F 32.0 °F 93% 29.72 in 1.0 mi Calm Calm - 0.03 in   Overcast
9:16 AM 33.8 °F 32.0 °F 93% 29.73 in 1.0 mi Calm Calm - N/A   Overcast
9:36 AM 33.8 °F 28.4 °F 81% 29.73 in 1.0 mi Calm Calm - N/A   Overcast
9:56 AM 33.8 °F 30.2 °F 87% 29.74 in 0.8 mi Calm Calm - N/A   Overcast
10:16 AM 33.8 °F 30.2 °F 87% 29.74 in 0.8 mi Calm Calm - N/A   Overcast
10:36 AM 33.8 °F 30.2 °F 87% 29.75 in 0.8 mi Calm Calm - N/A   Overcast
10:56 AM 33.8 °F 30.2 °F 87% 29.76 in 1.0 mi Calm Calm - N/A   Overcast
11:16 AM 33.8 °F 28.4 °F 81% 29.76 in 1.0 mi Calm Calm - 0.01 in   Overcast
11:36 AM 33.8 °F 28.4 °F 81% 29.77 in 1.0 mi Calm Calm - 0.01 in   Overcast
11:56 AM 33.8 °F 28.4 °F 81% 29.77 in 1.0 mi Calm Calm - 0.02 in   Overcast
12:16 PM 33.8 °F 30.2 °F 87% 29.77 in 1.0 mi Calm Calm - N/A   Overcast
12:36 PM 33.8 °F 30.2 °F 87% 29.78 in 1.0 mi Calm Calm - N/A   Overcast
12:56 PM 33.8 °F 30.2 °F 87% 29.78 in 0.8 mi Calm Calm - N/A   Overcast
1:16 PM 33.8 °F 30.2 °F 87% 29.78 in 0.8 mi Calm Calm - N/A   Overcast
1:36 PM 33.8 °F 30.2 °F 87% 29.79 in 0.8 mi Calm Calm - N/A   Overcast
1:56 PM 33.8 °F 32.0 °F 93% 29.79 in 1.0 mi Calm Calm - N/A   Overcast
2:16 PM 33.8 °F 30.2 °F 87% 29.80 in 1.0 mi Calm Calm - N/A   Overcast
2:36 PM 33.8 °F 30.2 °F 87% 29.80 in 1.0 mi Calm Calm - N/A   Overcast
2:56 PM 33.8 °F 30.2 °F 87% 29.81 in 5.0 mi Calm Calm - N/A   Overcast
3:16 PM 33.8 °F 30.2 °F 87% 29.81 in 5.0 mi Calm Calm - 0.01 in   Overcast
3:36 PM 33.8 °F 30.2 °F 87% 29.81 in 5.0 mi Calm Calm - 0.01 in   Overcast
3:56 PM 33.8 °F 30.2 °F 87% 29.82 in 7.0 mi Calm Calm - 0.01 in   Overcast
4:16 PM 33.8 °F 32.0 °F 93% 29.82 in 7.0 mi Calm Calm - N/A   Overcast
4:36 PM 33.8 °F 32.0 °F 93% 29.83 in 7.0 mi Calm Calm - N/A   Overcast
4:56 PM 33.8 °F 32.0 °F 93% 29.83 in 5.0 mi Calm Calm - N/A   Overcast
5:16 PM 33.8 °F 33.8 °F 100% 29.84 in 5.0 mi Calm Calm - N/A   Overcast
5:36 PM 33.8 °F 32.0 °F 93% 29.84 in 5.0 mi Calm Calm - N/A   Overcast
5:56 PM 33.8 °F 33.8 °F 100% 29.84 in 3.0 mi Calm Calm - N/A   Overcast
6:16 PM 33.8 °F 32.0 °F 93% 29.84 in 3.0 mi Calm Calm - N/A   Overcast
6:36 PM 33.8 °F 32.0 °F 93% 29.85 in 3.0 mi Calm Calm - N/A   Overcast
6:56 PM 33.8 °F 32.0 °F 93% 29.85 in 1.0 mi Calm Calm - N/A   Overcast
7:16 PM 33.8 °F 33.8 °F 100% 29.85 in 1.0 mi Calm Calm - N/A   Overcast
7:36 PM 33.8 °F 32.0 °F 93% 29.85 in 1.0 mi Calm Calm - N/A   Overcast
7:56 PM 33.8 °F 32.0 °F 93% 29.86 in 1.5 mi Calm Calm - N/A   Overcast
8:16 PM 33.8 °F 30.2 °F 87% 29.86 in 1.5 mi Calm Calm - N/A   Overcast
8:36 PM 33.8 °F 32.0 °F 93% 29.87 in 1.5 mi Calm Calm - N/A   Overcast
8:56 PM 33.8 °F 30.2 °F 87% 29.87 in 2.0 mi Calm Calm - N/A   Overcast
9:16 PM 33.8 °F 32.0 °F 93% 29.87 in 2.0 mi Calm Calm - N/A   Overcast
9:36 PM 33.8 °F 33.8 °F 100% 29.87 in 2.0 mi Calm Calm - N/A   Overcast
9:56 PM 33.8 °F 30.2 °F 87% 29.87 in 3.0 mi Calm Calm - N/A   Overcast
10:16 PM 33.8 °F 33.8 °F 100% 29.87 in 5.0 mi Calm Calm - N/A   Overcast
10:36 PM 33.8 °F 33.8 °F 100% 29.88 in 5.0 mi Calm Calm - N/A   Overcast
10:56 PM 33.8 °F 32.0 °F 93% 29.88 in 5.0 mi Calm Calm - N/A   Overcast
11:16 PM 33.8 °F 30.2 °F 87% 29.88 in 4.0 mi Calm Calm - N/A   Overcast
11:36 PM 33.8 °F 32.0 °F 93% 29.88 in 5.0 mi Calm Calm - N/A   Overcast
11:56 PM 33.8 °F 30.2 °F 87% 29.89 in 5.0 mi Calm Calm - N/A   Overcast